Volver al catálogo

STARLINK-30276

ActivoComunicacionesVLEO
NORAD 57652·PAYLOAD·🇺🇸 United States

Lanzado Aug 17, 2023 desde Cape Canaveral Space Force Station

Loading…

Próximos Pases (próximas 24 horas)

TLE

ActualizadoSource: CelesTrak SupGP

Época: Sep 14, 2026, 21:33 UTC

1 57652C 23122W   26257.89840278  .00011721  00000+0  42459-3 0  2578
2 57652  43.0025 104.0118 0001623 267.7936  79.1601 15.27567455    10

Sigue STARLINK-30276 en tiempo real con AllMySat

Download on the App Store